Point Salines, Grenada

5:56 PM AST on June 27, 2017 (GMT -0400)
Point Salines International

Weather History for TGPY - January, 2014

Change the Weather History Date:

Tuesday, January 21, 2014

  Actual Average Record
Temperature  
Mean Temperature 77 °F -  
Max Temperature 82 °F 83 °F 86 °F (1998)
Min Temperature 72 °F 73 °F 72 °F (2013)
Cooling Degree Days 12    
Growing Degree Days 27 (Base 50)    
Moisture  
Dew Point 71 °F    
Average Humidity 77    
Maximum Humidity 89    
Minimum Humidity 66    
Precipitation  
Precipitation 0.01 in - - ()
Sea Level Pressure  
Sea Level Pressure 29.94 in    
Wind  
Wind Speed 15 mph ()    
Max Wind Speed 58 mph    
Max Gust Speed -    
Visibility 7.7 miles    
Events      
Averages and records for this station are not official NWS values.
T = Trace of Precipitation, MM = Missing Value Source: Averaged Metar Reports

Daily Weather History Graph

Daily Weather History Graph

Search for Another Location

Airport or City:

Trip Planner

Search our weather history database for the weather conditions in past years. The results will help you decide how hot, cold, wet, or windy it might be!

Date:

Astronomy

Jan. 21, 2014 Rise Set
Actual Time 6:32 AM AST 6:04 PM AST
Civil Twilight 6:09 AM AST 6:27 PM AST
Nautical Twilight 5:44 AM AST 6:52 PM AST
Astronomical Twilight 5:18 AM AST 7:18 PM AST
Moon 10:28 PM AST (1/21) 9:58 AM AST (1/21)
Length of Visible Light 12h 17m
Length of Day
11h 32m
Waning Gibbous, 75% of the Moon is Illuminated
Jan 21
Waning Gibbous
Jan 24
Last Quarter
Jan 30
New
Feb 6
First Quarter
Feb 14
Full

Hourly Weather History & Observations

Time (AST) Temp. Heat Index Dew Point Humidity Pressure Visibility Wind Dir Wind Speed Gust Speed Precip Events Conditions
12:00 AM 77.0 °F - 69.8 °F 78% 29.95 in 6.2 mi East 11.5 mph - N/A   Partly Cloudy
1:00 AM 75.2 °F - 68.0 °F 78% 29.95 in 6.2 mi ENE 57.5 mph - N/A   Scattered Clouds
2:00 AM 75 °F - 69 °F 76% 29.93 in 11 mi East 11.5 mph - -   Widespread Dust
2:00 AM 75.2 °F - 69.8 °F 83% 29.92 in 6.2 mi East 11.5 mph - N/A   Scattered Clouds
3:00 AM 75.2 °F - 68.0 °F 78% 29.92 in 6.2 mi East 11.5 mph - N/A   Scattered Clouds
4:00 AM 75.2 °F - 69.8 °F 83% 29.92 in 6.2 mi ENE 11.5 mph - N/A   Partly Cloudy
5:00 AM 75 °F - 70 °F 79% 29.93 in 11 mi East 11.5 mph - -   Widespread Dust
5:00 AM 75.2 °F - 69.8 °F 83% 29.92 in 6.2 mi East 11.5 mph - N/A   Partly Cloudy
6:00 AM 75.2 °F - 71.6 °F 89% 29.95 in 6.2 mi East 9.2 mph - N/A   Partly Cloudy
7:00 AM 75.2 °F - 69.8 °F 83% 29.95 in 6.2 mi East 6.9 mph - N/A   Partly Cloudy
8:00 AM 78 °F - 72 °F 75% 29.98 in 11 mi East 12.7 mph - -   Widespread Dust
8:00 AM 78.8 °F - 71.6 °F 78% 29.98 in 6.2 mi East 12.7 mph - N/A   Partly Cloudy
9:00 AM 78.8 °F - 71.6 °F 78% 29.98 in 6.2 mi East 10.4 mph - N/A   Partly Cloudy
10:00 AM 80.6 °F 84.6 °F 71.6 °F 74% 30.01 in 6.2 mi ESE 18.4 mph - N/A   Scattered Clouds
11:00 AM 82 °F - 72 °F 66% 29.99 in 12 mi ESE 20.7 mph - -   Widespread Dust
11:00 AM 82.4 °F 88.2 °F 73.4 °F 74% 29.98 in 6.2 mi ESE 20.7 mph - N/A   Partly Cloudy
12:00 PM 82.4 °F 87.2 °F 71.6 °F 70% 29.95 in 6.2 mi ESE 16.1 mph - N/A   Scattered Clouds
1:00 PM 82.4 °F 87.2 °F 71.6 °F 70% 29.92 in 6.2 mi East 17.3 mph - N/A   Scattered Clouds
2:00 PM 82 °F - 72 °F 66% 29.92 in 14 mi SE 19.6 mph - -   Widespread Dust
2:00 PM 82.4 °F 88.2 °F 73.4 °F 74% 29.92 in 6.2 mi SE 19.6 mph - N/A   Scattered Clouds
3:00 PM 82.4 °F 88.2 °F 73.4 °F 74% 29.89 in 6.2 mi ESE 17.3 mph - N/A   Scattered Clouds
4:00 PM 80.6 °F 85.4 °F 73.4 °F 79% 29.89 in 6.2 mi SE 16.1 mph - N/A   Scattered Clouds
5:00 PM 81 °F - 72 °F 67% 29.90 in 14 mi East 19.6 mph - -   Widespread Dust
5:00 PM 80.6 °F 84.6 °F 71.6 °F 74% 29.89 in 6.2 mi East 19.6 mph - N/A   Partly Cloudy
6:00 PM 78.8 °F - 71.6 °F 78% 29.89 in 6.2 mi ESE 13.8 mph - N/A   Partly Cloudy
7:00 PM 78.8 °F - 71.6 °F 78% 29.89 in 6.2 mi ESE 11.5 mph - N/A   Partly Cloudy
8:00 PM 78 °F - 72 °F 78% 29.93 in 14 mi East 10.4 mph - -   Widespread Dust
8:00 PM 78.8 °F - 71.6 °F 78% 29.92 in 6.2 mi East 10.4 mph - N/A   Partly Cloudy
9:00 PM 78.8 °F - 71.6 °F 78% 29.95 in 6.2 mi East 11.5 mph - N/A   Partly Cloudy
10:00 PM 78.8 °F - 71.6 °F 78% 29.95 in 6.2 mi East 8.1 mph - N/A   Partly Cloudy
11:00 PM 76 °F - 73 °F 88% 29.95 in 12 mi East 8.1 mph - -   Widespread Dust
11:00 PM 77.0 °F - 73.4 °F 89% 29.95 in 6.2 mi East 8.1 mph - N/A   Partly Cloudy